SCP
1 1 1 1 1 1 2 1 1 1 1 1 1 1 1 1 0 0 1 1 0 0 0 0 0 0 0 0 0 0 0 0 0 0 0 0 0 0 0 0 0 0 0
1 1 1 1 1 2 2 1 1 1 1 1 1 1 1 1 1 1 1 1 1 0 0 0 0 0 0 0 0 0 0 0 0 0 0 0 0 0 0 0 0 0 0
1 1 1 1 1 2 2 2 1 1 1 1 1 1 1 1 1 1 1 1 1 1 1 1 0 0 0 0 0 0 0 0 0 0 0 0 0 0 0 0 0 0 0
1 1 1 2 2 2 2 2 2 2 1 1 1 1 1 1 1 1 1 1 1 1 1 1 1 1 0 0 0 0 0 0 0 0 0 0 0 0 0 0 0 0 0
1 1 1 2 2 2 2 2 2 2 2 2 1 1 1 1 1 1 1 1 1 1 1 1 1 1 1 1 1 1 0 0 0 0 0 0 0 0 0 0 0 0 0
1 1 1 2 2 2 2 2 2 2 2 2 1 1 1 1 1 1 1 1 1 1 1 1 1 1 1 1 1 1 1 1 0 0 0 0 0 0 0 0 0 0 0
1 1 1 2 2 2 2 2 3 2 2 2 2 1 1 1 1 1 1 1 1 1 1 1 1 1 1 1 1 1 1 1 1 1 0 0 0 0 0 0 0 0 0
1 1 1 2 2 2 2 3 3 3 2 2 2 2 1 1 1 1 1 1 1 1 1 1 1 1 1 1 1 1 1 1 1 1 1 1 0 0 0 0 0 0 0
1 1 1 2 2 2 2 3 3 3 2 2 2 2 1 1 1 1 1 1 1 1 1 1 1 1 1 1 1 1 1 1 1 1 1 1 1 0 0 0 0 0 0
1 1 1 2 2 2 2 2 3 3 2 2 1 1 1 1 1 1 1 1 1 1 1 1 1 1 1 1 1 1 1 1 1 1 1 1 1 0 0 0 0 0 0
1 1 1 1 1 2 2 2 2 2 2 2 1 1 1 1 1 1 1 1 1 1 1 1 1 1 1 1 1 1 1 1 1 1 1 1 1 0 0 0 0 0 0
1 1 1 1 1 1 2 2 2 2 2 1 1 1 1 1 1 1 1 1 1 1 1 1 1 1 1 1 1 1 1 1 1 1 1 1 1 1 0 0 0 0 0
1 1 2 2 1 1 1 2 2 2 1 1 1 1 1 1 1 1 1 1 1 1 1 1 1 1 1 1 1 1 1 1 0 1 1 1 1 1 1 0 0 0 0
2 2 2 2 2 2 2 1 1 1 1 1 1 1 1 1 1 1 1 1 1 1 1 1 1 1 1 1 1 1 1 1 1 1 1 1 1 1 0 0 0 0 0
2 2 2 2 2 2 2 2 1 1 1 1 1 1 1 1 1 1 1 1 1 1 1 1 1 1 1 1 1 1 1 1 1 1 1 1 0 0 0 0 0 0 0
1 2 2 2 2 2 2 2 2 2 2 2 1 1 1 1 1 1 1 1 1 1 1 1 1 1 0 0 0 0 1 1 1 1 1 0 0 0 0 0 0 0 0
1 1 2 2 2 2 2 2 2 2 2 2 2 2 2 1 1 1 1 1 1 1 1 1 1 1 0 0 0 0 0 1 1 1 1 1 0 0 0 0 0 0 0
1 1 1 1 2 1 1 1 2 2 2 2 2 2 1 1 1 1 1 1 1 1 1 1 1 1 0 0 0 0 0 0 1 1 1 1 0 0 0 0 0 0 0
1 1 1 1 1 2 2 2 2 2 1 1 1 1 1 1 1 1 1 1 1 1 1 1 1 1 0 0 0 0 0 0 0 1 1 1 0 0 0 0 0 0 0
1 1 1 1 2 2 2 2 2 1 1 1 1 1 1 1 1 1 1 1 1 1 1 1 0 0 0 0 0 0 0 0 0 0 0 0 0 0 0 0 0 0 0
2 2 2 2 2 2 2 2 1 1 1 1 1 1 1 1 1 1 1 1 1 1 1 1 0 0 0 0 0 0 0 0 0 0 0 0 0 0 0 0 0 0 0
2 2 2 2 2 2 1 1 1 1 1 1 1 1 1 1 1 1 1 1 1 1 1 0 0 0 0 0 0 0 0 0 0 0 0 0 0 0 0 0 0 0 0
2 2 2 2 1 1 1 1 1 1 1 1 1 1 1 1 1 1 1 0 0 0 0 0 0 0 0 0 0 0 0 0 0 0 0 0 0 0 0 0 0 0 0
1 1 1 1 1 1 1 1 1 1 1 1 1 1 1 1 1 0 0 0 0 0 0 0 0 0 0 0 0 0 0 0 0 0 0 0 0 0 0 0 0 0 0
1 1 1 1 1 1 1 1 1 1 1 1 1 1 1 1 0 0 0 0 0 0 0 0 0 0 0 0 0 0 0 0 0 0 0 0 0 0 0 0 0 0 0
1 1 1 1 1 1 1 1 1 1 1 1 1 1 1 0 0 0 0 0 0 0 0 0 0 0 0 0 0 0 0 0 0 0 0 0 0 0 0 0 0 0 0
Wind_Speed
14 15 14 14 13 11 11 10 9 8 6 5 5 4 4 3 3 3 4 4 3 3 2 1 2 1 1 1 1 1 1 2 1 0 1 1 2 2 2 3 3 5 5
14 14 14 14 14 12 11 10 9 9 7 5 4 3 4 3 3 3 4 5 4 4 4 3 2 2 1 1 2 2 1 2 2 1 1 1 1 1 3 3 3 4 4
15 15 14 14 14 14 13 11 11 10 9 7 5 4 3 2 2 3 3 4 4 4 3 3 3 2 2 2 3 3 3 2 1 1 1 1 1 1 1 3 3 3 3
15 15 15 14 14 14 13 11 10 10 9 8 7 7 6 5 4 3 3 4 4 4 4 4 4 3 3 3 4 4 2 2 2 1 1 2 1 1 1 1 2 4 4
14 15 15 14 13 14 13 12 10 9 9 9 8 7 6 4 3 3 4 4 4 5 5 5 4 4 3 3 3 2 3 2 3 2 2 2 2 3 2 2 2 2 3
12 13 13 13 12 13 12 12 10 10 9 9 9 8 6 5 5 5 4 4 4 4 5 5 4 4 3 4 3 3 4 3 3 2 2 2 2 2 2 2 2 2 2
11 12 12 13 12 11 11 11 12 10 10 10 9 8 7 6 6 5 5 4 3 4 5 5 4 4 4 4 4 4 4 4 4 3 3 2 2 2 2 2 2 2 2
9 10 11 11 11 11 10 10 11 10 10 10 8 7 7 6 5 6 5 4 4 4 4 5 4 5 5 5 4 4 5 4 4 5 4 3 2 2 2 2 2 2 2
8 9 10 11 10 9 9 10 10 9 9 9 8 7 6 6 5 4 4 4 3 3 4 5 5 4 5 5 4 4 4 4 4 4 4 3 3 3 2 2 2 2 2
6 8 9 10 9 9 8 9 9 8 8 8 8 7 7 5 4 4 5 4 3 2 2 4 4 4 4 4 4 4 4 4 4 3 3 3 3 3 2 2 2 2 2
7 8 8 9 9 9 9 8 8 8 7 7 7 5 6 5 5 4 4 3 3 2 3 3 3 3 3 3 3 4 3 4 4 4 4 4 3 2 2 2 2 2 2
6 8 8 8 7 7 8 8 7 7 7 6 6 5 5 5 5 4 4 3 3 3 3 3 3 4 4 4 4 4 4 4 4 4 3 3 3 3 3 2 2 2 2
6 7 7 7 6 5 6 8 8 7 6 6 6 5 5 5 4 3 3 3 3 3 3 3 3 3 3 2 3 3 3 4 3 3 3 3 2 2 2 2 2 2 2
7 8 6 6 5 5 5 5 6 7 6 6 5 5 4 4 4 4 3 3 3 3 2 2 2 2 2 2 2 2 3 3 2 2 2 2 2 2 2 2 2 2 1
8 7 6 6 5 4 4 5 5 5 6 5 5 4 4 4 4 4 4 3 3 3 2 1 1 1 1 2 2 2 2 2 2 2 1 0 1 1 0 1 0 1 1
6 7 7 6 5 4 4 4 4 4 5 4 4 4 4 4 3 3 3 3 2 2 2 1 1 1 1 1 1 0 0 0 0 1 0 1 1 2 3 3 3 2 1
5 5 6 6 5 4 3 3 4 4 4 4 3 4 4 4 3 3 3 3 3 2 2 2 2 2 3 3 3 2 1 1 1 1 1 1 0 2 2 3 3 4 4
6 5 4 5 5 4 4 3 4 4 4 4 4 4 4 4 4 3 3 3 3 3 2 2 2 2 3 4 3 3 1 1 2 2 2 1 2 3 2 3 3 3 3
5 4 5 4 4 4 4 4 4 4 4 4 4 4 4 3 3 4 3 3 3 3 3 2 3 3 4 4 3 2 1 2 2 3 3 3 3 4 4 3 3 3 3
6 5 4 5 5 4 4 4 4 3 3 4 4 3 3 3 3 3 3 3 3 3 3 3 3 3 4 4 4 3 1 1 2 2 3 5 4 5 5 3 2 2 2
6 5 5 6 5 5 4 4 3 3 3 4 4 4 4 4 3 3 3 3 3 3 4 4 4 4 4 4 4 4 2 2 2 2 3 4 6 6 5 4 3 2 2
5 6 6 6 5 5 4 4 3 3 3 4 4 4 4 3 4 3 3 3 3 4 4 4 4 3 3 4 4 4 3 4 3 3 4 4 6 7 7 5 5 4 3
5 5 6 6 5 4 4 4 4 4 4 4 4 4 4 3 4 4 3 2 2 3 3 3 3 3 3 4 5 4 4 5 4 4 5 6 6 5 5 5 5 4 2
5 5 5 5 5 4 5 4 4 4 4 4 4 5 4 4 5 4 4 3 2 2 2 2 3 3 3 3 2 2 3 4 4 3 4 4 4 3 3 3 2 2 2
5 5 5 5 5 5 5 4 4 4 4 4 4 5 4 5 6 7 6 5 6 4 3 3 3 3 3 3 4 3 3 3 3 2 2 2 2 2 2 2 3 3 3
5 5 5 5 5 5 5 4 4 4 4 3 3 4 4 5 6 7 8 13 11 12 12 10 7 6 6 5 6 6 5 5 4 3 2 3 3 3 3 3 3 3 3
Wind_Direction
179 172 173 172 166 160 161 167 173 168 170 173 179 185 181 180 180 181 169 168 186 181 186 205 176 207 161 173 183 161 213 217 196 194 286 277 224 190 190 189 186 187 189
177 170 172 174 171 167 168 172 177 176 183 179 179 182 177 184 187 187 165 180 186 183 193 189 193 193 179 201 209 174 217 241 187 180 179 293 308 262 209 186 200 188 177
176 173 176 178 176 174 176 182 182 180 188 179 177 184 171 202 190 168 172 186 187 195 207 185 196 188 194 196 213 206 205 237 247 189 177 184 229 282 251 218 198 180 186
176 175 178 180 181 177 179 179 180 181 185 185 188 188 188 196 199 186 183 185 194 204 203 199 197 201 209 198 215 203 203 213 239 231 214 212 205 202 242 265 199 195 203
179 177 180 178 181 178 178 179 178 181 183 192 195 196 198 192 192 193 187 185 198 213 213 199 197 203 213 210 216 198 205 211 228 229 221 220 223 223 213 228 220 214 206
182 176 178 172 178 179 178 177 177 183 185 192 197 199 200 192 196 199 191 191 199 211 216 204 195 199 211 212 209 216 215 216 230 240 242 224 220 223 219 222 218 218 216
183 174 173 168 172 178 178 176 175 184 189 194 199 198 198 197 203 206 206 203 206 205 208 205 191 201 214 218 210 213 222 218 223 226 241 248 250 245 230 225 238 232 228
176 169 166 166 171 178 177 174 174 182 188 194 197 196 192 199 207 208 210 209 215 211 188 184 191 202 212 219 209 217 217 215 218 226 227 241 252 263 245 230 223 250 261
163 163 161 162 165 172 173 174 169 175 183 190 189 191 194 203 207 192 203 220 217 214 187 182 191 203 212 217 210 221 223 213 213 226 223 232 242 244 249 259 235 215 245
158 156 152 152 159 164 162 164 164 171 179 185 191 191 192 196 191 196 211 216 215 218 183 191 199 206 210 209 216 225 222 219 224 228 235 232 247 247 238 242 256 234 228
157 146 146 150 157 161 158 162 163 165 175 183 186 184 181 186 186 197 205 207 209 209 205 205 209 217 219 217 218 231 228 225 232 234 228 227 235 249 248 234 236 236 219
135 137 138 138 146 152 157 158 160 166 173 175 175 179 176 176 182 195 197 195 198 204 207 204 209 223 224 219 218 228 233 231 236 243 240 240 234 238 259 261 245 240 231
114 113 115 124 134 139 146 153 157 162 170 170 170 170 171 174 181 188 187 187 190 201 210 203 206 224 228 222 227 229 236 235 230 234 241 243 239 242 244 251 264 264 256
112 111 111 111 116 119 124 146 149 153 157 159 163 162 167 169 169 175 175 173 179 194 202 201 205 214 231 233 235 231 237 242 229 228 245 251 245 239 241 243 258 257 265
122 118 117 110 109 114 120 124 128 135 143 149 158 161 158 164 170 169 164 164 172 187 159 158 191 211 215 239 233 229 226 230 236 235 223 153 63 46 205 244 270 268 250
130 125 122 118 117 117 116 115 119 126 133 146 157 156 158 157 154 155 152 146 150 136 123 148 177 199 266 32 80 202 255 187 285 325 314 153 112 104 107 99 75 60 8
97 114 125 126 124 123 114 122 126 128 136 141 142 140 140 140 139 144 136 138 136 126 121 127 114 86 49 39 60 69 74 60 38 23 10 311 1 108 109 104 85 66 54
105 97 97 114 128 128 124 125 133 135 136 134 135 137 139 138 134 129 125 125 121 119 113 114 110 85 54 40 50 81 105 74 49 39 38 39 28 31 57 94 86 72 59
102 101 104 109 110 116 118 120 121 124 130 132 129 127 129 127 132 134 133 131 123 115 112 101 90 85 64 43 47 60 87 93 82 65 56 63 58 37 55 80 83 76 68
93 96 102 104 95 96 103 110 115 125 129 122 115 112 114 116 123 122 130 130 126 124 118 103 88 86 77 58 49 57 75 77 80 79 63 54 56 64 66 74 77 71 54
90 94 95 93 88 92 101 107 105 104 109 113 112 108 106 108 111 116 124 122 120 119 114 107 95 84 80 69 57 60 62 56 63 69 64 57 71 72 66 62 65 75 66
89 92 87 87 86 87 94 98 89 89 99 110 116 115 111 118 117 111 120 127 135 133 124 113 97 81 83 76 71 74 62 44 56 58 63 63 71 72 65 62 57 54 46
82 84 92 90 84 81 87 92 79 80 90 100 110 107 99 92 97 101 101 113 124 125 121 124 115 102 95 88 79 89 74 61 68 71 75 79 85 87 77 65 49 42 37
87 85 90 89 86 78 76 83 87 90 99 103 100 101 99 92 77 68 65 66 57 80 97 98 105 97 86 76 66 93 97 92 89 96 101 97 91 81 72 64 53 41 34
89 87 88 89 88 85 82 78 81 85 91 99 107 110 103 95 80 67 47 52 53 44 62 72 82 93 89 58 51 55 68 67 78 97 105 96 87 81 66 58 58 53 40
87 87 84 85 83 85 80 71 80 95 104 114 117 119 116 110 107 102 83 56 62 63 62 65 78 80 85 89 74 68 63 61 66 77 77 68 59 56 54 50 50 49 39